Weather History for Crestview, FL

Change the Weather History Date:

Wednesday, January 30, 2013

  Actual Average Record
Temperature  
Mean Temperature 61 °F -  
Max Temperature 75 °F - - ()
Min Temperature 44 °F - - ()
Degree Days  
Heating Degree Days 4    
Growing Degree Days 11 (Base 50)    
Moisture  
Dew Point 63 °F    
Average Humidity 89    
Maximum Humidity 100    
Minimum Humidity 61    
Precipitation  
Precipitation 0.25 in - - ()
Sea Level Pressure  
Sea Level Pressure 29.82 in    
Wind  
Wind Speed 20 mph (SSW)    
Max Wind Speed 31 mph    
Max Gust Speed 47 mph    
Visibility 9 miles    
Events Rain    
T = Trace of Precipitation, MM = Missing Value Source: NWS Daily Summary

Daily Weather History Graph

Daily Weather History Graph

Search for Another Location

Airport:

Trip Planner

Search our weather history database for the weather conditions in past years. The results will help you decide how hot, cold, wet, or windy it might be!

Date:

Astronomy

Jan. 30, 2013 Rise Set
Actual Time 6:38 AM CST 5:20 PM CST
Civil Twilight 6:13 AM CST 5:46 PM CST
Nautical Twilight 5:44 AM CST 6:15 PM CST
Astronomical Twilight 5:15 AM CST 6:43 PM CST
Moon 8:58 PM CST (1/30) 8:24 AM CST (1/30)
Length of Visible Light 11h 32m
Length of Day
10h 42m
Waning Gibbous, 87% of the Moon is Illuminated
Jan 30
Waning Gibbous
Feb 3
Last Quarter
Feb 10
New
Feb 17
First Quarter
Feb 25
Full

Hourly Weather History & Observations

Time (CST) Temp. Windchill Dew Point Humidity Pressure Visibility Wind Dir Wind Speed Gust Speed Precip Events Conditions
12:06 AM 69.8 °F - 69.8 °F 100% 29.94 in 8.0 mi South 20.7 mph 25.3 mph N/A   Overcast
12:58 AM 70.5 °F - 70.2 °F 99% 29.92 in 7.0 mi SSE 18.4 mph 25.3 mph N/A   Overcast
1:48 AM 71.6 °F - 69.8 °F 94% 29.90 in 10.0 mi SSE 20.7 mph 28.8 mph N/A   Overcast
1:58 AM 70.9 °F - 70.0 °F 97% 29.91 in 10.0 mi South 17.3 mph 25.3 mph N/A   Overcast
1:59 AM 71.6 °F - 69.8 °F 94% 29.91 in 10.0 mi South 20.7 mph 28.8 mph N/A   Overcast
2:54 AM 71.6 °F - 69.8 °F 94% 29.89 in 10.0 mi SSE 16.1 mph 28.8 mph N/A   Overcast
2:58 AM 71.1 °F - 70.2 °F 97% 29.89 in 10.0 mi South 19.6 mph 25.3 mph N/A   Overcast
3:16 AM 71.6 °F - 69.8 °F 94% 29.88 in 10.0 mi South 18.4 mph 28.8 mph N/A   Light Drizzle
3:41 AM 71.6 °F - 69.8 °F 94% 29.88 in 10.0 mi South 19.6 mph 27.6 mph N/A   Light Drizzle
3:45 AM 71.6 °F - 69.8 °F 94% 29.88 in 10.0 mi South 17.3 mph 27.6 mph N/A   Overcast
3:58 AM 71.1 °F - 69.8 °F 96% 29.87 in 10.0 mi South 16.1 mph 25.3 mph 0.00 in   Overcast
4:18 AM 71.6 °F - 69.8 °F 94% 29.86 in 10.0 mi South 19.6 mph 27.6 mph N/A   Overcast
4:38 AM 71.6 °F - 69.8 °F 94% 29.84 in 10.0 mi South 20.7 mph 26.5 mph N/A   Overcast
4:58 AM 71.4 °F - 69.6 °F 94% 29.83 in 10.0 mi South 21.9 mph 29.9 mph N/A   Overcast
5:58 AM 71.2 °F - 69.1 °F 93% 29.81 in 10.0 mi SSE 20.7 mph 32.2 mph N/A   Overcast
6:38 AM 71.6 °F - 69.8 °F 94% 29.83 in 10.0 mi South 20.7 mph 29.9 mph N/A   Overcast
6:48 AM 71.6 °F - 69.8 °F 94% 29.82 in 10.0 mi South 24.2 mph 31.1 mph N/A   Overcast
6:53 AM 71.6 °F - 69.8 °F 94% 29.82 in 10.0 mi SSE 23.0 mph 34.5 mph N/A   Overcast
6:58 AM 71.6 °F - 69.8 °F 94% 29.82 in 10.0 mi South 20.7 mph 34.5 mph N/A   Overcast
7:58 AM 71.8 °F - 69.4 °F 92% 29.81 in 10.0 mi South 25.3 mph 35.7 mph N/A   Overcast
8:55 AM 72.5 °F - 69.4 °F 90% 29.81 in 6.0 mi South 23.0 mph 35.7 mph N/A   Overcast
9:55 AM 73.0 °F - 69.6 °F 89% 29.80 in 6.0 mi South 27.6 mph 39.1 mph N/A   Overcast
10:55 AM 73.4 °F - 70.0 °F 89% 29.78 in 6.0 mi South 25.3 mph 40.3 mph N/A   Overcast
11:55 AM 74.3 °F - 69.8 °F 86% 29.75 in 10.0 mi South 31.1 mph 41.4 mph N/A   Overcast
12:05 PM 75.2 °F - 69.8 °F 83% 29.74 in 10.0 mi South 27.6 mph 40.3 mph N/A Rain Light Rain
12:29 PM 73.4 °F - 69.8 °F 88% 29.72 in 10.0 mi South 29.9 mph 39.1 mph N/A   Overcast
12:42 PM 73.4 °F - 69.8 °F 88% 29.70 in 6.0 mi South 29.9 mph 42.6 mph N/A   Light Drizzle
12:52 PM 73.4 °F - 69.8 °F 88% 29.70 in 9.0 mi South 27.6 mph 38.0 mph N/A   Overcast
12:55 PM 73.6 °F - 70.5 °F 90% 29.71 in 10.0 mi South 23.0 mph 38.0 mph 0.01 in   Overcast
1:32 PM 75.2 °F - 69.8 °F 83% 29.69 in 0.5 mi SSW 27.6 mph 44.9 mph N/A Rain Heavy Rain
1:37 PM 73.4 °F - 69.8 °F 88% 29.67 in 3.0 mi South 29.9 mph 40.3 mph N/A Rain Rain
1:48 PM 73.4 °F - 69.8 °F 88% 29.67 in 6.0 mi SSW 29.9 mph 40.3 mph N/A   Overcast
1:55 PM 73.8 °F - 70.5 °F 90% 29.68 in 10.0 mi SSW 31.1 mph 41.4 mph 0.04 in   Overcast
2:32 PM 73.4 °F - 69.8 °F 88% 29.64 in 3.0 mi South 28.8 mph 47.2 mph N/A Rain Rain
2:35 PM 73.4 °F - 69.8 °F 88% 29.65 in 0.8 mi SSW 28.8 mph 44.9 mph N/A Rain Heavy Rain
2:40 PM 71.6 °F - 66.2 °F 83% 29.69 in 4.0 mi West 27.6 mph 44.9 mph N/A Rain Light Rain
2:55 PM 62.6 °F - 58.6 °F 87% 29.73 in 10.0 mi West 24.2 mph 33.4 mph 0.19 in   Overcast
3:12 PM 60.8 °F - 57.2 °F 88% 29.75 in 10.0 mi WNW 26.5 mph 35.7 mph N/A   Light Drizzle
3:55 PM 54.3 °F - 50.4 °F 86% 29.79 in 10.0 mi WNW 13.8 mph 20.7 mph 0.01 in   Overcast
4:33 PM 53.6 °F - 48.2 °F 82% 29.80 in 10.0 mi West 9.2 mph - N/A   Light Drizzle
4:55 PM 52.5 °F - 48.4 °F 86% 29.82 in 10.0 mi West 6.9 mph - 0.00 in   Overcast
5:55 PM 51.6 °F - 46.4 °F 82% 29.83 in 10.0 mi West 6.9 mph - N/A   Overcast
6:14 PM 51.8 °F - 46.4 °F 82% 29.84 in 10.0 mi West 8.1 mph - N/A   Light Drizzle
6:55 PM 52.0 °F - 47.5 °F 85% 29.87 in 10.0 mi West 10.4 mph - 0.00 in Rain Light Rain
7:48 PM 51.8 °F - 50.0 °F 94% 29.91 in 10.0 mi WSW 6.9 mph - N/A   Overcast
7:55 PM 52.7 °F - 49.3 °F 88% 29.91 in 10.0 mi West 6.9 mph - 0.01 in   Overcast
8:55 PM 52.3 °F - 48.9 °F 88% 29.95 in 10.0 mi NW 8.1 mph - N/A   Mostly Cloudy
9:55 PM 50.0 °F - 39.7 °F 68% 30.00 in 10.0 mi WNW 12.7 mph - N/A   Clear
10:55 PM 47.3 °F - 34.3 °F 61% 30.05 in 10.0 mi WNW 16.1 mph 25.3 mph N/A   Partly Cloudy
11:55 PM 44.6 °F 38.4 °F 32.7 °F 63% 30.08 in 10.0 mi WNW 12.7 mph - N/A   Clear